Location: Courcelles
(49.2596°N, 1.7419°E)
Time: 07:02:47
(UTC+00:00)

Cosmos 540 Rocket - Pass Details

Date: 17 November 2025
Orbit: 735 x 747 km, 74.1° (Epoch: 06 December)

Event Time Altitude Azimuth Distance (km) Brightness Sun altitude
Rises 17:21:38 0° 337° (NNW) 3,202 6.8 -11.8°
Reaches altitude 10° 17:24:01 10° 339° (NNW) 2,272 6.0 -12.2°
Maximum altitude 17:29:10 79° 66° (ENE) 765 3.4 -13.0°
Drops below altitude 10° 17:34:16 10° 153° (SSE) 2,248 5.8 -13.8°
Sets 17:36:37 0° 155° (SSE) 3,165 6.6 -14.2°
